Theta_e
316 315 312 314 314 313 315 315 315 314 316 318 316 316 315 312 310 309 307 305 303 302 304 305 307 307 307 307 306 306 306 306 306 306 305 305 305 304 303 303 302 301 301 301
315 315 313 314 317 317 317 316 315 315 318 317 316 316 315 313 312 311 310 306 304 302 302 303 305 305 306 306 306 306 306 306 306 306 305 305 304 304 303 302 302 301 300 300
314 317 317 317 318 318 318 317 317 317 316 315 315 316 315 314 312 311 309 307 305 303 302 301 303 305 306 306 306 306 306 306 306 306 305 305 304 304 303 302 301 300 300 299
316 316 318 317 318 316 318 317 318 318 316 317 315 317 313 312 311 311 308 305 304 302 302 302 302 304 306 306 306 306 306 306 306 306 306 304 304 303 302 301 300 300 299 299
316 318 318 318 318 317 317 317 316 316 314 315 313 313 311 312 314 312 308 306 304 302 302 301 303 305 306 306 306 307 306 306 306 306 305 304 303 302 301 300 299 299 299 298
316 316 316 317 316 316 316 314 312 313 312 314 312 311 312 314 313 310 310 307 306 303 301 302 304 305 305 306 306 306 306 306 306 305 304 303 302 300 299 299 298 298 298 298
316 317 314 314 316 315 312 310 312 313 316 314 313 311 311 309 309 308 308 308 306 304 301 301 301 303 305 305 305 306 306 306 305 304 303 301 299 299 298 298 298 298 297 297
314 316 315 312 314 314 314 310 311 315 318 318 311 314 313 309 305 304 305 307 306 304 302 301 302 303 304 305 305 306 305 304 303 302 300 299 298 298 298 297 297 297 297 297
310 313 310 310 310 312 313 314 310 309 307 308 308 308 310 307 305 304 305 307 307 305 303 302 302 303 303 304 304 304 304 303 300 299 299 298 298 297 297 297 297 297 296 296
307 309 309 309 309 309 311 308 310 307 310 311 309 308 311 307 307 305 306 307 307 305 303 300 300 302 303 303 303 302 301 299 298 298 298 297 297 296 296 296 296 296 295 295
305 305 307 307 308 308 308 309 306 306 307 310 309 306 305 307 307 308 307 302 302 302 302 301 301 303 303 302 301 299 298 298 298 297 297 296 296 296 295 295 295 294 294 294
304 302 305 306 305 306 307 307 305 305 307 304 304 310 306 303 303 303 304 303 302 301 301 300 302 301 300 299 298 298 298 298 297 296 296 296 296 295 295 294 294 294 293 293
304 302 303 307 308 308 305 305 305 304 303 306 306 306 303 303 304 302 302 301 300 301 301 300 299 298 298 298 297 297 297 297 296 295 296 295 295 294 294 294 294 293 292 292
304 302 304 306 310 308 308 308 305 304 302 303 304 305 306 304 303 301 302 301 301 300 300 299 298 297 298 297 297 297 297 296 295 295 295 295 294 294 294 293 292 292 292 292
302 302 305 306 306 307 307 307 307 305 304 306 306 305 305 303 302 303 303 301 301 301 300 300 298 298 297 296 297 296 295 295 295 295 294 294 294 294 293 292 292 292 292 292
302 303 307 307 308 307 309 307 307 306 305 303 304 304 303 304 303 303 302 302 303 302 300 299 298 298 296 296 296 295 295 295 294 294 293 293 292 292 291 291 292 292 292 293
305 305 304 309 305 307 307 308 308 308 305 306 306 305 305 305 304 303 303 301 301 300 299 298 298 297 296 296 295 295 294 294 293 293 293 291 291 291 291 291 291 292 293 293
304 304 303 303 304 306 303 305 305 307 307 305 306 306 305 305 303 302 300 300 300 299 299 297 298 297 297 296 295 294 294 293 293 292 291 292 291 291 291 291 292 293 293 293
301 302 303 303 303 303 306 305 305 306 307 305 306 305 305 304 302 302 302 301 300 299 299 299 297 297 295 295 294 293 293 292 291 291 291 291 291 291 291 291 292 293 293 294
301 299 302 302 300 302 302 305 303 302 304 305 305 305 303 302 300 299 300 299 300 301 300 298 297 296 295 294 293 292 292 291 291 291 291 291 291 291 291 292 293 293 293 294
302 300 301 301 300 303 303 305 303 306 303 305 304 303 303 302 300 299 299 300 300 300 299 297 295 295 294 293 292 292 291 291 291 291 290 291 291 291 292 293 293 294 294 294
305 301 301 299 301 304 304 302 306 302 302 303 302 302 301 300 300 300 299 298 298 298 297 296 295 294 294 292 292 291 290 290 291 290 291 291 291 292 292 293 294 294 294 294
305 304 303 302 303 302 302 303 301 300 300 301 301 300 299 299 299 298 298 297 297 297 296 295 294 293 293 292 291 291 290 291 290 290 291 291 292 292 293 293 294 294 294 295
305 302 303 304 304 303 300 301 301 301 301 300 299 299 298 298 297 297 296 296 296 296 295 294 293 292 292 292 291 291 290 290 290 290 291 291 292 293 292 293 294 294 294 295
304 302 302 302 302 301 301 300 300 300 300 299 298 298 298 297 297 296 296 296 296 295 294 294 293 292 292 292 291 290 290 290 290 291 291 292 292 292 293 293 294 294 295 297
302 303 303 304 301 300 299 299 299 299 300 299 298 297 297 297 296 296 295 296 295 295 294 293 293 292 292 291 290 290 290 290 290 290 291 291 292 292 293 293 293 293 295 296
Wind_Speed
1 4 6 10 5 3 4 3 4 3 2 5 7 10 11 9 7 9 9 9 9 9 10 19 21 21 19 18 16 13 9 6 2 1 3 5 8 12 16 18 18 18 17 18
5 4 4 3 4 4 3 2 4 4 1 5 3 11 10 6 8 14 14 12 12 6 7 15 20 21 21 20 18 14 11 7 5 2 2 3 8 12 15 17 16 16 16 17
5 1 5 3 2 3 2 4 3 4 4 2 5 8 5 1 2 6 8 10 8 11 10 9 19 24 21 19 19 17 12 8 7 4 3 5 9 12 14 15 16 15 15 16
2 1 3 2 1 4 2 2 2 1 3 3 3 5 6 4 8 3 6 8 9 9 7 8 17 21 22 21 18 16 14 11 8 6 6 8 9 12 15 15 16 17 20 22
3 3 2 2 2 1 3 3 3 2 3 3 2 2 8 5 6 5 5 7 8 10 12 11 18 28 25 20 18 15 15 12 9 8 8 8 10 13 13 13 16 19 22 23
2 2 2 1 3 3 3 4 7 4 3 1 4 4 5 3 4 7 2 7 9 9 10 11 22 23 19 17 17 15 14 12 10 9 8 9 11 11 13 17 19 21 23 25
4 2 2 2 3 4 5 5 3 3 2 5 1 3 7 5 3 4 7 9 8 6 7 8 10 15 19 19 19 15 14 12 10 8 7 7 8 11 14 17 20 22 26 28
4 4 2 3 2 4 2 5 5 4 2 4 1 5 3 2 5 5 5 4 5 7 6 8 11 17 18 18 15 13 12 11 7 5 5 8 10 13 16 19 23 24 24 24
3 3 2 4 2 2 2 2 3 4 2 1 3 6 4 5 7 8 9 5 3 5 6 8 9 12 12 10 10 10 8 4 2 5 7 10 14 18 22 24 23 21 25 30
3 1 2 1 1 4 2 4 2 3 2 4 4 4 3 6 5 8 8 6 4 4 6 5 4 3 5 4 3 2 2 1 4 7 10 14 19 21 21 19 22 27 29 28
2 3 2 2 1 4 2 1 5 3 4 3 2 5 4 2 3 1 4 7 6 6 4 3 1 1 2 3 4 3 4 5 8 12 15 19 18 17 20 24 28 28 32 36
0 4 2 5 1 2 2 4 5 4 3 1 4 6 2 3 5 5 4 5 5 6 6 5 4 2 3 5 5 5 6 9 12 15 17 16 19 24 28 28 30 31 36 35
4 1 2 5 4 2 3 3 4 5 3 5 4 5 1 4 6 6 6 6 6 6 8 7 7 5 4 3 3 5 9 13 16 16 16 21 26 28 28 31 32 36 33 33
2 2 4 5 3 2 3 3 4 5 3 3 6 5 4 6 4 6 6 5 6 7 7 6 3 1 1 2 5 9 13 16 17 17 19 26 28 28 30 34 35 32 31 32
3 2 2 3 4 2 3 5 4 5 4 5 5 6 4 3 4 3 4 6 6 6 6 2 3 7 6 5 7 11 14 16 17 19 25 27 29 32 36 35 32 32 32 30
2 1 1 2 2 4 4 5 6 5 4 7 5 5 1 1 0 4 5 3 2 4 6 7 8 9 7 6 10 14 16 18 19 22 24 27 34 33 32 32 32 33 29 35
2 3 2 4 5 6 6 3 2 2 3 3 5 3 2 2 4 5 5 5 6 6 8 9 8 9 6 7 11 14 16 18 19 20 26 29 31 32 30 32 32 30 33 33
4 3 2 2 4 1 4 1 3 4 1 4 4 3 2 3 5 8 6 6 7 7 8 9 12 7 6 8 12 14 17 18 20 25 27 29 31 29 31 32 31 32 33 33
3 4 2 2 2 6 1 4 5 4 5 5 3 1 2 4 4 5 3 2 6 8 14 17 8 5 6 10 12 14 16 19 23 27 29 30 31 31 32 31 31 33 33 33
5 6 4 2 3 5 4 2 3 4 4 3 2 1 3 4 5 4 5 7 12 19 20 9 5 4 7 10 11 14 19 21 25 26 30 32 32 30 31 31 32 33 33 31
1 2 4 2 2 8 6 3 2 3 5 2 0 2 3 2 5 6 9 9 19 20 11 5 3 6 10 11 13 17 20 22 24 28 32 33 32 30 29 31 31 30 32 30
6 6 3 3 1 7 4 5 5 4 3 2 0 2 3 5 7 8 9 9 15 14 5 3 5 8 10 10 13 16 18 23 25 30 32 33 31 26 29 29 32 31 28 26
2 5 4 8 5 4 0 4 3 4 4 1 1 4 4 6 6 8 8 8 13 8 4 4 6 10 10 11 14 17 21 22 28 30 32 33 26 27 26 28 30 28 26 24
4 4 3 2 3 4 5 2 3 2 3 4 2 5 5 7 7 8 7 7 8 5 5 6 10 11 13 14 16 17 19 24 27 30 31 26 27 29 27 27 26 24 24 25
5 5 4 4 3 4 2 3 4 3 1 2 5 5 5 5 7 6 6 8 7 6 7 9 9 11 14 15 17 17 20 24 27 28 27 24 25 26 26 25 26 26 26 26
4 6 5 5 5 4 3 5 5 5 2 1 4 7 11 4 7 10 8 8 7 8 9 9 11 12 14 16 18 18 22 22 25 24 22 25 25 26 23 25 27 24 22 22
Wind_Direction
56 109 193 210 192 138 145 197 236 256 228 162 230 263 264 205 204 209 202 199 207 206 200 180 175 175 178 180 178 179 179 172 170 352 357 356 2 0 0 0 357 355 350 347
45 216 216 159 149 159 168 216 256 284 281 177 254 261 259 213 216 208 200 197 202 184 188 194 187 183 188 188 191 191 195 196 207 240 289 328 338 346 347 348 346 345 342 341
147 263 140 149 144 150 219 194 218 232 338 326 341 292 296 326 243 216 206 196 186 187 190 205 203 201 197 198 202 207 208 210 215 227 254 306 319 327 332 334 334 337 337 335
193 291 142 115 165 130 263 187 113 51 45 263 28 284 285 323 302 257 200 182 179 183 203 211 210 211 209 211 210 215 217 218 222 241 278 299 311 317 322 322 326 329 328 327
240 139 136 167 211 149 214 68 65 73 83 7 308 106 273 357 340 325 226 210 199 195 198 207 212 216 217 217 217 222 215 216 232 256 284 294 300 306 308 314 316 318 320 321
61 343 74 132 75 66 103 68 44 52 84 343 257 149 290 348 313 308 263 201 204 204 210 221 222 225 228 226 224 216 212 231 246 275 285 293 304 312 314 318 317 319 317 317
9 324 351 86 102 35 69 57 325 345 6 227 16 103 250 302 321 298 298 228 210 205 206 220 219 221 227 227 216 216 224 241 262 276 295 313 321 320 319 318 316 314 313 313
159 314 166 1 124 175 147 148 160 247 228 285 108 236 263 281 324 322 324 226 162 201 219 222 216 223 216 213 218 223 233 257 275 297 325 329 327 322 318 316 313 309 309 312
142 288 21 48 46 101 184 183 175 113 19 55 266 298 16 357 1 13 19 44 201 222 228 229 234 232 221 230 235 241 260 261 306 340 337 329 325 321 317 317 313 309 310 312
180 43 7 344 116 35 132 158 72 8 238 271 298 291 239 350 353 5 16 14 322 317 330 348 349 268 254 247 250 220 151 63 7 344 332 325 322 319 314 311 311 313 314 311
103 100 295 37 177 183 51 9 58 120 138 185 306 280 228 274 181 156 325 354 338 325 329 334 238 109 155 149 137 107 51 14 346 332 324 320 318 319 320 319 318 317 316 314
27 134 225 219 308 202 185 186 141 126 226 118 145 273 306 3 355 1 46 19 17 36 35 13 17 100 106 89 63 44 7 342 331 323 321 320 324 326 325 325 320 317 314 313
182 34 19 354 6 5 225 196 111 107 90 199 136 262 351 21 10 23 62 39 25 26 17 7 32 52 73 72 44 349 339 330 326 324 324 325 326 326 323 321 318 316 310 303
81 124 165 188 200 172 253 213 150 132 118 185 225 285 278 320 330 30 34 22 12 5 355 345 345 343 298 302 325 327 328 329 330 326 322 322 325 324 321 319 318 309 304 299
95 180 190 248 254 280 248 248 219 204 191 192 240 216 319 0 76 56 358 358 9 4 355 331 237 241 249 284 308 321 326 329 329 323 324 325 324 322 321 320 312 306 302 298
7 198 40 286 14 1 277 263 247 230 213 250 243 266 357 134 271 352 345 342 349 303 277 266 258 252 254 288 319 326 326 330 329 324 324 325 323 323 320 313 307 304 303 304
98 117 70 274 354 330 311 218 225 220 182 203 208 191 198 287 327 313 311 248 261 281 285 278 276 267 272 307 320 321 325 327 324 323 324 326 328 322 314 309 305 302 307 303
125 95 80 248 5 350 240 304 245 186 133 132 122 190 245 289 286 287 270 254 284 293 285 284 277 258 291 311 323 325 326 326 325 324 326 327 325 313 310 307 303 304 306 304
48 114 88 125 205 289 275 179 188 172 256 192 167 14 314 302 313 286 265 271 282 280 287 290 261 260 300 325 325 324 326 326 326 330 329 325 318 311 308 306 308 309 307 306
60 66 114 122 142 219 247 188 109 90 284 143 134 317 300 350 346 261 309 311 302 305 311 268 255 288 312 324 326 327 329 331 333 333 327 323 316 311 308 307 308 308 307 305
60 25 164 148 230 285 244 170 114 88 239 160 80 314 294 276 225 286 305 304 307 308 295 233 267 315 330 331 332 329 330 330 330 331 329 326 320 313 312 309 311 310 310 309
177 149 182 91 86 288 177 82 175 196 200 142 320 310 308 289 295 292 294 294 305 300 251 267 304 319 322 322 324 322 324 332 331 332 329 324 321 320 317 315 315 314 311 308
272 186 182 181 215 246 212 136 154 149 143 153 13 335 304 285 277 294 286 293 302 289 280 296 310 314 317 323 328 327 332 333 331 330 328 325 323 323 320 321 316 315 315 310
223 175 189 88 246 193 142 109 102 88 72 31 326 287 289 274 291 296 293 300 305 290 293 309 314 311 315 329 332 333 333 333 329 328 326 322 327 325 326 323 317 314 313 312
205 137 174 256 275 70 350 134 113 78 98 254 277 243 271 274 287 278 292 303 296 293 297 303 301 304 317 329 330 334 334 334 331 332 326 322 324 324 322 321 320 320 317 325
187 190 172 231 205 154 185 162 165 167 174 344 6 341 338 316 302 306 294 289 271 274 288 294 301 312 321 327 329 333 336 336 335 332 329 328 326 322 324 323 323 326 328 339